Regional Weather Roundup
Issued by NWS

Home | Current Version | Previous Version | Graphics & Text | Print | Product List | Glossary On
Versions: 1 2 3 4 5 6 7 8 9 10 11 12 13 14 15 16 17 18 19 20 21 22 23 24 25 26 27 28 29 30 31 32 33 34 35 36 37 38 39 40 41 42 43 44 45 46 47 48 49 50
000
ASUS43 KMKX 310721
RWRWI

WISCONSIN REGIONAL WEATHER ROUNDUP
NATIONAL WEATHER SERVICE MILWAUKEE/SULLIVAN WI
200 AM CDT FRI JUL 31 2015

NOTE: "FAIR" INDICATES FEW OR NO CLOUDS BELOW 12,000 FEET WITH NO
SIGNIFICANT WEATHER AND/OR OBSTRUCTIONS TO VISIBILITY.

WIZ001-002-006>008-014>016-023>028-310800-
NORTHWEST WISCONSIN

CITY           SKY/WX    TMP DP  RH WIND       PRES   REMARKS
SUPERIOR ARPT  CLOUDY    66  57  73 W7        29.91S
ASHLAND        CLEAR     63  56  78 SW7       29.90F
HAYWARD        PTCLDY    59  55  87 S5        29.96S
SIREN          PTCLDY    65  56  74 W7        29.97F
CUMBERLAND     CLEAR     61  55  82 W6        29.99S
RICE LAKE      CLEAR     63  57  81 W6        30.00S
CHETEK         CLEAR     68  58  68 W3        29.98F
LADYSMITH      CLEAR     65  57  75 W6        29.99S
EAU CLAIRE     CLEAR     63  57  81 W5        29.98F
MENOMONIE      CLEAR     67  58  73 W6        30.00S
NEW RICHMOND   CLEAR     65  57  74 W7        30.01F
OSCEOLA        CLEAR     66  58  74 W6        30.02F
$$

WIZ003>005-009-010-017-018-310800-
NORTH CENTRAL WISCONSIN

CITY           SKY/WX    TMP DP  RH WIND       PRES   REMARKS
MANITOWISH WTR CLEAR     60  56  88 W3        29.93S
ARBOR VITAE    CLEAR     63  56  76 W6        29.93F
WOODRUFF       CLEAR     63  56  76 W6        29.93F
RHINELANDER    CLEAR     60  55  83 W8        29.95F
EAGLE RIVER    CLEAR     56  55  96 W7        29.92F
LAND O LAKES   CLEAR     59  55  85 W3        29.92F
PHILLIPS       CLEAR     62  57  83 W5        29.95F
TOMAHAWK       PTCLDY    60  56  85 W5        29.96F
MEDFORD        CLEAR     62  57  81 W5        29.99S
MERRILL        NOT AVBL
$$

WIZ029-030-035-036-043>047-310800-
CENTRAL WISCONSIN

CITY           SKY/WX    TMP DP  RH WIND       PRES   REMARKS
WAUSAU         CLEAR     67  57  70 NW10      29.95F
MOSINEE        CLEAR     63  57  82 W7        29.98F
MARSHFIELD     CLEAR     64  56  75 W6        29.99S
STEVENS POINT  CLEAR     66  57  72 W7        29.98S
WAUPACA        CLEAR     69  58  69 W7        29.96F
WAUTOMA        CLEAR     66  58  75 CALM      29.99S
WISC RAPIDS    CLEAR     67  57  70 W8        29.99F
CAMP DOUGLAS   CLEAR     66  62  86 W6        29.99F
$$

WIZ011>013-019>022-031-037>040-048>050-310800-
NORTHEAST WISCONSIN

CITY           SKY/WX    TMP DP  RH WIND       PRES   REMARKS
ANTIGO         CLEAR     60  56  88 W5        29.96F
SHAWANO        CLEAR     68  57  68 W6        29.94S
OCONTO         CLEAR     65  59  80 W7        29.90F
STURGEON BAY   PTCLDY    70  57  64 W10       29.92F
GREEN BAY      CLEAR     66  57  72 SW5       29.93F
MANITOWOC      CLEAR     69  58  67 MISG      29.94F
APPLETON       CLEAR     64  54  68 W6        29.96F
CLINTONVILLE   CLEAR     64  55  72 W7        29.94S
OSHKOSH        CLEAR     68  57  68 W3        29.96F
$$

WIZ032>034-041-042-053>061-310800-
SOUTHWEST WISCONSIN

CITY           SKY/WX    TMP DP  RH WIND       PRES   REMARKS
LA CROSSE      PTCLDY    68  61  78 SE5       30.01R
SPARTA         CLEAR     58  56  91 CALM      30.02S
VIROQUA        PTCLDY    62  59  88 SW3       30.04S
BOSCOBEL       CLEAR     61  59  93 CALM      30.03F
PRAIRIE DU CHI CLEAR     63  59  87 E5        30.03F
PLATTEVILLE    CLEAR     63  60  89 S5        30.06S
$$

WIZ056-057-062-063-064-067-068-310800-
SOUTH CENTRAL WISCONSIN

CITY           SKY/WX    TMP DP  RH WIND       PRES   REMARKS
REEDSBURG      PTCLDY    64  58  80 CALM      30.01F
BARABOO/DELLS  PTCLDY    67  56  67 SW6       30.02S
LONE ROCK      PTCLDY    60  57  89 CALM      30.03F
MINERAL POINT  CLEAR     64  59  82 SW5       30.06S
MADISON        CLEAR     70  57  63 VRB5      30.02S
MIDDLETON      CLEAR     64  57  78 W5        30.03F
WATERTOWN      CLEAR     63  59  87 CALM      30.01S
MONROE         CLEAR     68  59  73 SW12      30.05S
JANESVILLE     CLEAR     64  55  72 CALM      30.03S
$$

WIZ051-052-058>065-066-070>072-310800-
SOUTHEAST WISCONSIN

CITY           SKY/WX    TMP DP  RH WIND       PRES   REMARKS
MILWAUKEE      CLEAR     73  55  53 W6        29.99F
WAUKESHA       CLEAR     66  54  63 W9        30.02S
MILWAUKEE/TIMM CLEAR     68  54  60 W7        30.00S
RACINE         CLEAR     69  56  62 W7        30.02S
BURLINGTON     CLEAR     64  55  72 W3        30.02S
KENOSHA        CLEAR     65  57  75 W8        30.02S
FOND DU LAC    CLEAR     68  57  68 W9        29.98S
SHEBOYGAN      CLEAR     65  58  78 W6        29.96F
WEST BEND      CLEAR     68  54  60 CALM      29.99S
JUNEAU         CLEAR     62  57  83 SW7       30.02R
$$

LSZ147-162-310800-
LAKE SUPERIOR

STATION/POSITION TIME  TEMP    WIND        PRES    WAVE
                       AIR SEA DIR/SP/G            HT/PER
                 (UTC) (F)     (DEG/KT/KT) (MB)    (FT/S)
W MID LAKE BUOY  0650   58 53  270/  6/  8 1010.7R   1
DEVILS ISLAND    0700   59     260/ 10/ 12 1011.8R
PORT WING        0600   68     210/  8/ 10 1012.5S
SAXON HARBOR     0600   69                 1011.9
$$

LMZ867-665-643>646-310800-
LAKE MICHIGAN

STATION/POSITION TIME  TEMP    WIND        PRES    WAVE
                       AIR SEA DIR/SP/G            HT/PER
                 (UTC) (F)     (DEG/KT/KT) (MB)    (FT/S)
CHAMBERS ISLAND  0600   67     200/  5/ 10 1012.2S
S GREEN BAY BUOY 0700   68 70  260/ 12/ 14 1014.0F
N MID LAKE BUOY  0650   71 69  250/ 16/ 17 1010.4F   2/ 3
NORTHPORT PIER   0600   71     230/  6/ 11 1011.9S
SISTER BAY       0644   71     280/ 16/ 18   N/A
ALGOMA LAKESHORE 0642          260/  4/  8   N/A
KEWAUNEE LAKESHO 0600   67     300/  4/  6 1012.8F
SHEBOYGAN LAKESH 0700   72     260/ 11/ 13 1014.3F
PORT WASHINGTON  0600   74     280/  5/  7 1015.6S
ATWATER BUOY     0700   71 63  250/ 10/ 14 1016.6F
MILWAUKEE LAKESH 0700   74     280/  8/ 11   N/A
KENOSHA   LAKESH 0700   72     260/  9/ 13 1015.9R
$$

TC  - TEMPERATURE IN CELSIUS
VSB - VISIBILITY IN STATUTE MILES
WCI - WIND CHILL INDEX
HX  - HEAT INDEX



USA.gov is the U.S. government's official web portal to all federal, state and local government web resources and services.